[[{"header":{"parameterUnit":"m.s-1","parameterCategory":1,"la1":30.2991,"la2":30.254,"lo1":-89.0895,"lo2":-89.0444,"dy":0.0017,"dx":0.0017,"nx":28,"ny":28,"refTime":"2024-06-14T03:00:00:Z","depth":0,"parameterNumber":2,"parameterNumberName":"U-component_of_WINDS"},"data":[0,0,0,0,0,0,0,0,0,0,0,0,0,0,0,0,0,0,0,0,0,0,0,0,0,0,0,0,0,0,0,0,0,0,0,0,0,0,0,0,0,0,0,0,0,0,0,0,0,0,0,0,0,0,0,0,0,0,1.0615,1.0615,0,1.0664,1.0665,1.0666,1.0693,1.0693,1.0693,1.0693,1.074,1.0742,1.0743,0,0,0,0,0,0,0,0,0,0,0,0,0,1.054,1.0541,1.0615,1.0615,1.0616,1.0664,1.0665,1.0666,1.0693,1.0693,1.0693,1.0693,1.074,1.0741,1.0743,0,0,0,0,0,0,0,0,0,0,0,0,0,1.0579,1.0542,1.0615,1.0636,1.0638,1.0664,1.0665,1.0666,1.0693,1.0693,1.0693,1.0693,1.074,1.0741,1.0743,1.0751,0,0,1.0748,1.0749,0,0,0,0,0,0,0,0,1.0577,1.0582,1.0632,1.0634,1.0637,1.0673,1.0656,1.0694,1.0693,1.0672,1.0693,1.0693,1.0718,1.0721,1.073,1.0754,1.0756,1.0749,1.075,1.075,1.0751,0,0,0,0,0,0,0,1.0574,1.058,1.0634,1.0633,1.0636,1.0641,1.0647,1.0663,1.0693,1.0674,1.0676,1.0682,1.0719,1.0728,1.0731,1.0756,1.0749,1.075,1.0751,1.0752,1.0789,1.0789,0,0,0,0,0,0,1.0569,1.0578,1.0633,1.0636,1.0607,1.0643,1.0649,1.0661,1.0693,1.0698,1.0681,1.0683,1.0725,1.0729,1.0733,1.0745,1.075,1.0752,1.0753,1.0789,1.0789,1.0789,0,0,0,0,0,0,1.0567,1.0573,1.0631,1.0607,1.0615,1.0644,1.0657,1.0662,1.0671,1.0699,1.0704,1.0686,1.0725,1.0731,1.0747,1.0747,1.0753,1.0754,1.0789,1.0789,1.0789,1.0769,0,0,0,0,0,0,1.0565,1.0573,1.0577,1.0607,1.0616,1.0645,1.0657,1.0663,1.0675,1.0677,1.0704,1.0709,1.0726,1.0744,1.0749,1.075,1.0756,1.0789,1.0789,1.0789,1.0769,1.0768,1.0767,0,0,0,0,0,1.0562,1.0568,1.0577,1.0583,1.0622,1.0645,1.065,1.067,1.0675,1.0679,1.0696,1.0708,1.0746,1.0746,1.0751,1.0752,1.0789,1.0789,1.0789,1.077,1.0768,1.0767,0,0,0,0,0,0,1.0536,1.0573,1.0583,1.0599,1.0619,1.0649,1.0655,1.0667,1.0685,1.0686,1.0709,1.0715,1.0729,1.0742,1.0741,1.0762,1.0769,1.077,1.0753,1.0751,1.075,1.0746,1.0757,0,0,0,0,0,1.0532,1.0548,1.0579,1.0591,1.06,1.0626,1.0636,1.065,1.0671,1.0679,1.0698,1.0716,1.0733,1.0743,1.0759,1.0772,1.0778,1.0775,1.0774,1.0772,1.0773,1.078,1.0779,1.0788,1.0788,1.0788,0,0,1.0524,1.0546,1.0555,1.0586,1.0603,1.0618,1.0632,1.0648,1.0659,1.0681,1.0698,1.0712,1.0734,1.0749,1.0756,1.076,1.0772,1.0772,1.0771,1.0772,1.078,1.0779,1.0778,1.0788,1.0788,1.0788,0,0,1.0518,1.0537,1.0548,1.0565,1.0591,1.0608,1.0611,1.064,1.065,1.0668,1.0685,1.0698,1.0725,1.0741,1.0752,1.0752,1.0763,1.0756,1.0749,1.0756,1.0755,1.0754,1.0754,1.0754,1.0757,1.0757,1.0757,0,1.0504,1.0529,1.0552,1.0567,1.058,1.0602,1.0614,1.0628,1.0658,1.0665,1.067,1.0705,1.0722,1.074,1.074,1.0749,1.0752,1.0753,1.0753,1.0753,1.0753,1.0753,1.0753,1.0756,1.0756,1.0756,1.0756,0,1.0511,1.0528,1.0535,1.0564,1.0577,1.059,1.0615,1.0625,1.0638,1.0655,1.0672,1.0693,1.0714,1.0719,1.0731,1.0739,1.0741,1.0749,1.0757,1.0751,1.0751,1.0751,1.0754,1.0754,1.0755,1.0755,0,0,1.0489,1.0532,1.0534,1.0547,1.0578,1.059,1.0604,1.0626,1.0635,1.0654,1.0666,1.0689,1.0697,1.071,1.0724,1.073,1.0728,1.0737,1.0738,1.0735,1.0738,1.0731,1.0731,1.0736,1.0736,1.0736,1.0736,0,1.0487,1.0514,1.0536,1.0554,1.057,1.0591,1.0603,1.0622,1.0638,1.0652,1.0669,1.0685,1.0694,1.0702,1.0709,1.0727,1.0729,1.0727,1.0746,1.0747,1.074,1.0731,1.0724,1.0723,1.0736,1.0736,1.0736,0,1.0488,1.0508,1.0528,1.0558,1.0565,1.0575,1.0597,1.0611,1.0633,1.0644,1.0659,1.0674,1.0688,1.0695,1.0715,1.0713,1.0722,1.0732,1.0732,1.0734,1.0741,1.0733,1.0723,1.0722,1.0737,1.0737,1.0737,0,1.0469,1.0501,1.0518,1.0529,1.0563,1.057,1.0584,1.0607,1.0618,1.0637,1.0645,1.0665,1.0675,1.069,1.0709,1.0712,1.0727,1.0735,1.0736,1.0735,1.0738,1.0737,1.0729,1.0744,1.0744,1.0744,1.0744,0,1.0464,1.0476,1.051,1.052,1.0534,1.0558,1.057,1.0586,1.0606,1.0619,1.0638,1.0649,1.0675,1.0689,1.0704,1.0718,1.0723,1.0731,1.0735,1.073,1.0728,1.0735,1.0736,1.0744,1.0744,1.0744,1.0744,0,1.0445,1.0469,1.0489,1.052,1.0528,1.0536,1.0563,1.0573,1.059,1.0606,1.0611,1.0637,1.0655,1.0676,1.07,1.0711,1.0723,1.0729,1.0716,1.0718,1.0718,1.0717,1.0713,1.0714,1.0729,1.0729,1.0728,0,1.0441,1.045,1.0483,1.0494,1.0508,1.0525,1.0537,1.0561,1.0573,1.06,1.0606,1.0626,1.0643,1.067,1.0691,1.0709,1.0716,1.0713,1.0718,1.0712,1.0715,1.0714,1.0715,1.0711,1.0711,1.0711,1.071,0,1.0429,1.0441,1.0459,1.0481,1.0496,1.0514,1.0533,1.0541,1.0568,1.0581,1.06,1.0613,1.0639,1.0658,1.0679,1.0693,1.0706,1.0709,1.071,1.0704,1.0696,1.07,1.0712,1.0709,1.0709,1.0709,1.0709,1.0709,1.0417,1.0427,1.0451,1.0471,1.0488,1.0506,1.0517,1.0536,1.0553,1.0576,1.0589,1.0608,1.063,1.066,1.0673,1.0688,1.0692,1.0694,1.0694,1.0694,1.0692,1.0694,1.0692,1.0692,1.0692,1.0692,1.0692,0,1.0406,1.0423,1.0441,1.0468,1.0483,1.0496,1.0518,1.0529,1.0546,1.0566,1.0583,1.0605,1.0623,1.0646,1.0666,1.0673,1.0679,1.0677,1.0677,1.0679,1.0687,1.0684,1.0672,1.0672,1.0672,1.0672,1.0672,1.0672,1.0402,1.0419,1.0434,1.0459,1.0476,1.0496,1.0507,1.0523,1.0539,1.0563,1.058,1.0595,1.0615,1.0637,1.0654,1.0661,1.0667,1.0663,1.067,1.0677,1.0679,1.0681,1.0678,1.0664,1.0664,1.0661,1.0661,1.0661]},{"header":{"parameterUnit":"m.s-1","parameterCategory":1,"la1":30.2991,"la2":30.254,"lo1":-89.0895,"lo2":-89.0444,"dy":0.0017,"dx":0.0017,"nx":28,"ny":28,"refTime":"2024-06-14T03:00:00:Z","depth":0,"parameterNumber":3,"parameterNumberName":"V-component_of_WINDS"},"data":[0,0,0,0,0,0,0,0,0,0,0,0,0,0,0,0,0,0,0,0,0,0,0,0,0,0,0,0,0,0,0,0,0,0,0,0,0,0,0,0,0,0,0,0,0,0,0,0,0,0,0,0,0,0,0,0,0,0,1.3277,1.3276,0,1.3245,1.3244,1.3244,1.3203,1.3202,1.3201,1.3201,1.3167,1.3167,1.3167,0,0,0,0,0,0,0,0,0,0,0,0,0,1.3302,1.3301,1.3277,1.3276,1.3276,1.3245,1.3244,1.3244,1.3203,1.3202,1.3201,1.32,1.3168,1.3167,1.3167,0,0,0,0,0,0,0,0,0,0,0,0,0,1.3282,1.3301,1.3277,1.3252,1.3249,1.3245,1.3244,1.3244,1.3203,1.3202,1.3201,1.32,1.3168,1.3167,1.3167,1.3184,0,0,1.3166,1.3166,0,0,0,0,0,0,0,0,1.3284,1.3282,1.3256,1.3253,1.325,1.3227,1.3241,1.3224,1.3203,1.322,1.3201,1.3199,1.3188,1.3186,1.3182,1.3183,1.3181,1.3166,1.3165,1.3165,1.3165,0,0,0,0,0,0,0,1.3285,1.3283,1.3264,1.3255,1.3252,1.3242,1.3238,1.3237,1.321,1.3219,1.3216,1.3213,1.3186,1.3182,1.3181,1.3181,1.3166,1.3165,1.3165,1.3165,1.3194,1.3195,0,0,0,0,0,0,1.329,1.3284,1.3265,1.3263,1.3265,1.3242,1.3238,1.3235,1.321,1.3205,1.3213,1.3211,1.3184,1.3181,1.318,1.3198,1.3165,1.3165,1.3165,1.3193,1.3194,1.3195,0,0,0,0,0,0,1.3291,1.3289,1.3266,1.3273,1.3269,1.3243,1.324,1.3235,1.3231,1.3206,1.3201,1.3215,1.3183,1.318,1.3183,1.3196,1.3165,1.3164,1.3192,1.3193,1.3194,1.3235,0,0,0,0,0,0,1.3292,1.3289,1.3296,1.3273,1.3269,1.3271,1.3241,1.3235,1.3231,1.3227,1.3206,1.3201,1.3182,1.3184,1.3183,1.3195,1.3164,1.319,1.3192,1.3194,1.3232,1.3238,1.3242,0,0,0,0,0,1.3293,1.3309,1.3296,1.3294,1.3277,1.3272,1.3269,1.3247,1.3232,1.3238,1.3222,1.3202,1.3195,1.3185,1.3183,1.3195,1.3189,1.3192,1.3194,1.323,1.3237,1.3242,0,0,0,0,0,0,1.3334,1.3305,1.3291,1.33,1.3289,1.3265,1.3272,1.3254,1.3247,1.3243,1.3216,1.3211,1.3218,1.3207,1.3196,1.321,1.3189,1.3191,1.3217,1.3223,1.3228,1.323,1.3164,0,0,0,0,0,1.3344,1.3342,1.3318,1.3328,1.3323,1.3299,1.3296,1.3279,1.3266,1.3261,1.3245,1.3233,1.3227,1.3225,1.3219,1.3231,1.3225,1.3238,1.3243,1.3247,1.3249,1.3254,1.3259,1.3202,1.3202,1.3202,0,0,1.3365,1.3349,1.335,1.3336,1.3325,1.3324,1.3295,1.3295,1.3294,1.3261,1.3263,1.3251,1.3235,1.3242,1.3245,1.3234,1.3263,1.325,1.3253,1.3253,1.3256,1.3262,1.3267,1.3204,1.3204,1.3203,0,0,1.3402,1.339,1.3397,1.3387,1.337,1.3354,1.3356,1.3334,1.3325,1.3327,1.3302,1.33,1.3292,1.3281,1.3275,1.3308,1.3289,1.3307,1.3332,1.3337,1.3342,1.3345,1.3357,1.3361,1.3309,1.3309,1.3309,0,1.3429,1.3427,1.3403,1.3404,1.3399,1.3369,1.3376,1.3367,1.3349,1.3346,1.3334,1.3323,1.331,1.3314,1.3322,1.3319,1.3319,1.3309,1.3343,1.3347,1.335,1.336,1.3364,1.3311,1.3311,1.3311,1.3311,0,1.3462,1.346,1.3468,1.3452,1.3447,1.3451,1.3427,1.3425,1.3409,1.3394,1.3396,1.338,1.337,1.337,1.3354,1.3371,1.3365,1.3348,1.3326,1.3358,1.3367,1.3371,1.3315,1.3314,1.3313,1.3313,0,0,1.3524,1.3494,1.3497,1.3489,1.3469,1.3467,1.347,1.346,1.3459,1.3448,1.3449,1.3443,1.3427,1.342,1.3403,1.3407,1.3433,1.339,1.3389,1.3398,1.345,1.3463,1.3468,1.3421,1.3421,1.3422,1.3452,0,1.3556,1.3559,1.3538,1.3546,1.3544,1.3516,1.3518,1.3506,1.3492,1.3488,1.3472,1.3468,1.3448,1.3443,1.3446,1.343,1.3443,1.3427,1.3421,1.3421,1.3425,1.3473,1.3486,1.3514,1.3455,1.3456,1.3456,0,1.3595,1.3586,1.3595,1.3574,1.3572,1.3574,1.3563,1.356,1.3545,1.3535,1.3527,1.3507,1.3508,1.3487,1.3487,1.3476,1.3472,1.3464,1.3464,1.3463,1.344,1.3471,1.3523,1.3527,1.3462,1.3461,1.3461,0,1.3639,1.3629,1.3632,1.3627,1.3602,1.3605,1.3594,1.3579,1.3574,1.3564,1.3561,1.3551,1.3546,1.3539,1.3517,1.3504,1.3519,1.3497,1.351,1.351,1.3514,1.3514,1.3565,1.3512,1.3512,1.3512,1.3512,0,1.3677,1.3684,1.3652,1.3654,1.366,1.3634,1.3641,1.3628,1.3614,1.3613,1.3588,1.3587,1.3558,1.3554,1.3537,1.3539,1.3537,1.3528,1.3523,1.353,1.3531,1.3527,1.3524,1.3513,1.3513,1.3513,1.3513,0,1.3727,1.3706,1.3708,1.3685,1.3679,1.3684,1.3664,1.3665,1.3649,1.3648,1.3646,1.3621,1.3615,1.3593,1.3581,1.3569,1.3577,1.3568,1.3582,1.3579,1.3593,1.3592,1.3643,1.3648,1.3592,1.3593,1.3594,0,1.3753,1.3757,1.3734,1.3731,1.3723,1.3719,1.3714,1.3689,1.3685,1.3668,1.3671,1.3663,1.3655,1.3646,1.3627,1.3618,1.3608,1.3627,1.3607,1.3613,1.3608,1.3607,1.3607,1.3631,1.3632,1.3632,1.3633,0,1.3801,1.379,1.3784,1.3774,1.3769,1.376,1.375,1.3749,1.3721,1.3718,1.3711,1.3705,1.3693,1.3685,1.3673,1.3662,1.3642,1.3639,1.3642,1.3648,1.3656,1.3651,1.3593,1.3638,1.3638,1.3637,1.3637,1.3637,1.3839,1.3841,1.3825,1.3819,1.3808,1.3799,1.3798,1.3783,1.3777,1.3765,1.3751,1.3746,1.373,1.3712,1.3702,1.3698,1.3687,1.3691,1.3692,1.3693,1.3696,1.3657,1.3695,1.3695,1.3695,1.3695,1.3695,0,1.3885,1.3873,1.3868,1.3854,1.3849,1.3832,1.3819,1.3816,1.3812,1.3799,1.3792,1.3784,1.3776,1.3756,1.3746,1.3746,1.3737,1.3745,1.3744,1.3742,1.3706,1.3705,1.3752,1.3752,1.3752,1.3752,1.3752,1.3752,1.3908,1.391,1.3898,1.3895,1.3883,1.3878,1.3872,1.3863,1.3853,1.3845,1.3839,1.3826,1.381,1.3798,1.379,1.3784,1.3781,1.3791,1.3783,1.375,1.3744,1.3739,1.3738,1.3791,1.3791,1.3819,1.3819,1.3819]}]]